Flag for Central African Republic Weather past 2 weeks in Bambari, Central African Republic

Now
91 °F

Partly sunny.


Feels Like: 99 °F
Forecast: 72 / 90 °F
Wind: 7 mph from West

Location: Bangui Airport

Current Time: Mar 29, 2015 at 5:20:31 PM

Latest Report: Mar 29, 2015 at 5:00 PM


Visibility: N/A

Pressure: 29.74 "Hg

Humidity: 52%

Dew point: 72 °F

Location of BambariLocation

Historic Weather in Bambari — Graph

°F

Bambari temperature yesterday

Maximum temperature yesterday: 91 °F (at 2:00 PM)
Minimum temperature yesterday: 68 °F (at 6:00 AM)
Average temperature yesterday: 78 °F

Past Weeks' High & Low Weather Summary

 TemperatureHumidityPressure
High100 °F (Mar 16, 2:00 PM)100% (Mar 15, 2:00 AM)30.01 "Hg (Mar 15, 2:00 AM)
Low68 °F (Mar 28, 6:00 AM)35% (Mar 16, 2:00 PM)29.65 "Hg (Mar 15, 4:00 PM)
Average83 °F76%29.80 "Hg
* Reported Mar 14 4:00 PM — Mar 29 4:00 PM, Bambari, Weather by CustomWeather, © 2015

Note: Actual official high and low records may vary slightly from our data, if they occured in-between our weather recording intervals... More about our weather records

Advertising

Bambari weather history for previous 24 hours

 ConditionsComfort  
Time TempWeatherWind HumidityBarometerVisibility
4:00 PM
Sun, Mar 29
93 °FBroken clouds.7 mph49%29.74 "HgN/A
3:00 PM93 °FBroken clouds.7 mph53%29.77 "HgN/A
2:00 PM93 °FPartly sunny.3 mph53%29.80 "HgN/A
10:00 AM86 °FPartly sunny.10 mph66%29.95 "HgN/A
9:00 AM82 °FBroken clouds.8 mph79%29.95 "HgN/A
8:00 AM79 °FPartly sunny.3 mph89%29.95 "HgN/A
7:00 AM77 °FPartly sunny.No wind89%29.92 "Hg5 mi
6:00 AM75 °FScattered clouds.No wind94%29.89 "Hg5 mi
5:00 AM75 °FPassing clouds.1 mph94%29.89 "Hg5 mi
4:00 AM75 °FClear.1 mph94%29.89 "Hg10 mi
3:00 AM75 °FClear.2 mph94%29.86 "Hg10 mi
2:00 AM75 °FClear.2 mph94%29.86 "Hg10 mi
1:00 AM77 °FClear.No wind94%29.89 "Hg10 mi
12:00 AM77 °FClear.3 mph89%29.89 "Hg10 mi
11:00 PM
Sat, Mar 28
77 °FClear.2 mph89%29.89 "Hg10 mi
10:00 PM77 °FClear.3 mph89%29.89 "Hg10 mi
9:00 PM79 °FClear.5 mph84%29.86 "Hg10 mi
8:00 PM79 °FClear.6 mph84%29.86 "Hg10 mi
7:00 PM81 °FClear.7 mph79%29.83 "Hg10 mi
6:00 PM84 °FPassing clouds.7 mph70%29.83 "HgN/A
5:00 PM86 °FPartly sunny.10 mph66%29.80 "HgN/A
Weather by CustomWeather, © 2015

See weather overviewHow to use our weather pages